Regional Weather Roundup
Issued by NWS

Home | Current Version | Previous Version | Graphics & Text | Print | Product List | Glossary Off
Versions: 1 2 3 4 5 6 7 8 9 10 11 12 13 14 15 16 17 18 19 20 21 22 23 24 25 26 27 28 29 30 31 32 33 34 35 36 37 38 39 40 41 42 43 44 45 46 47 48 49 50

969
ASUS43 KTOP 291159
RWRKS

WEATHER ROUNDUP FOR KANSAS
NATIONAL WEATHER SERVICE GOODLAND KS
700 AM CDT FRI JUL 29 2016

NOTE:  "FAIR" INDICATES FEW OR NO CLOUDS BELOW 12,000 FEET WITH NO
SIGNIFICANT WEATHER AND/OR OBSTRUCTIONS TO VISIBILITY.

KSZ001>006-013>018-027>032-041>047-291300-
NORTHWEST KANSAS

CITY           SKY/WX    TMP DP  RH WIND       PRES   REMARKS
GOODLAND       CLOUDY    61  59  93 CALM      30.12R
6HR MIN TEMP:  60; 6HR MAX TEMP:  65; 6HR PCP: TRACE;

HAYS           PTCLDY    66  59  77 N10       30.05R
HILL CITY      MOCLDY    65  64  97 NE3       30.09R FOG
6HR MIN TEMP:  65; 6HR MAX TEMP:  68; 6HR PCP: TRACE;

RUSSELL        MOCLDY    67  66  97 VRB3      30.04R
6HR MIN TEMP:  65; 6HR MAX TEMP:  68; 6HR PCP: TRACE;

$$

KSZ061>065-074>080-084>089-291300-
SOUTHWEST KANSAS

CITY           SKY/WX    TMP DP  RH WIND       PRES   REMARKS
DODGE CITY     CLOUDY    65  63  93 S5        30.08F
6HR MIN TEMP:  65; 6HR MAX TEMP:  69; 6HR PCP:  0.01;

ELKHART          N/A     66  59  78 N7          N/A
GARDEN CITY    PTCLDY    63  61  93 SE8       30.09R
6HR MIN TEMP:  63; 6HR MAX TEMP:  69; 6HR PCP:  0.02;

GREAT BEND     CLOUDY    66  61  82 E10       30.03F
LIBERAL        CLOUDY    70  61  73 NE13      30.08R
$$

KSZ066>073-081>083-090>101-291300-
SOUTHEAST KANSAS

CITY           SKY/WX    TMP DP  RH WIND       PRES   REMARKS
CHANUTE        CLOUDY    69  67  93 NW3       29.99R
6HR MIN TEMP:  68; 6HR MAX TEMP:  73;

COFFEYVILLE    CLOUDY    70  69  97 CALM      29.99R
6HR MIN TEMP:  68; 6HR MAX TEMP:  72;

HUTCHINSON     CLOUDY    69  66  90 NW9       30.06R
6HR MIN TEMP:  68; 6HR MAX TEMP:  70; 6HR PCP: TRACE;

NEWTON         MOCLDY    67  66  97 NW7       30.04R
PARSONS        CLOUDY    69  67  93 CALM      29.99S
6HR MIN TEMP:  67; 6HR MAX TEMP:  74;

WICHITA INTL   LGT RAIN  71  68  90 SW7       30.03R
6HR MIN TEMP:  70; 6HR MAX TEMP:  73; 6HR PCP:  0.01;

WICHITA JABRA  LGT RAIN  69  68  96 W6        30.03R
6HR MIN TEMP:  68; 6HR MAX TEMP:  70; 6HR PCP: TRACE;

WICHITA MCCONL LGT RAIN  70  67  90 SW10      30.02R
WINFIELD       TSTM      70  66  87 MISG      30.04R
6HR MIN TEMP:  69; 6HR MAX TEMP:  74; 6HR PCP:  0.04;

$$

KSZ007>012-019>026-033>040-048>060-102>105-291300-
NORTHEAST KANSAS

CITY           SKY/WX    TMP DP  RH WIND       PRES   REMARKS
CONCORDIA      CLOUDY    65  63  93 N5        30.03R
6HR MIN TEMP:  64; 6HR MAX TEMP:  68;

EMPORIA        CLOUDY    68  67  96 CALM      30.01R
6HR MIN TEMP:  67; 6HR MAX TEMP:  69;

LAWRENCE       MOCLDY    66  66 100 NW5       30.00R
6HR MIN TEMP:  66; 6HR MAX TEMP:  69;

MANHATTAN      CLOUDY    68  67  96 CALM      30.01R
6HR MIN TEMP:  66; 6HR MAX TEMP:  69;

OLATHE IND     PTCLDY    68  67  96 N3        30.00R
6HR MIN TEMP:  67; 6HR MAX TEMP:  70;

OLATHE EXE     CLOUDY    69  66  90 NE3       30.00R
6HR MIN TEMP:  68; 6HR MAX TEMP:  70;

SALINA         CLOUDY    70  67  90 CALM      30.03R
6HR MIN TEMP:  69; 6HR MAX TEMP:  71;

TOPEKA BILLARD CLOUDY    67  66  97 NW3       30.01R
6HR MIN TEMP:  65; 6HR MAX TEMP:  69;

TOPEKA FORBES  CLOUDY    68  66  93 N3        30.01R
6HR MIN TEMP:  67; 6HR MAX TEMP:  70;

$$




USA.gov is the U.S. government's official web portal to all federal, state and local government web resources and services.